Weather History for Jordan, MT

Change the Weather History Date:

Saturday, May 11, 2013

  Actual Average Record
Temperature  
Mean Temperature 49 °F 51 °F  
Max Temperature 72 °F 65 °F 93 °F (1906)
Min Temperature 26 °F 37 °F 16 °F (1968)
Degree Days  
Heating Degree Days 16 14  
Month to date heating degree days 173 170  
Since 1 July heating degree days 7495 7904  
Cooling Degree Days 0 0  
Month to date cooling degree days 0 0  
Year to date cooling degree days 0 0  
Moisture  
Dew Point 26 °F    
Average Humidity 51    
Maximum Humidity 81    
Minimum Humidity 20    
Precipitation  
Precipitation 0.00 in 0.06 in 0.66 in (1970)
Month to date precipitation 0.00 0.62  
Year to date precipitation 2.84 2.70  
Snow  
Snow 0.00 in - - ()
Month to date snowfall 0.0  
Since 1 July snowfall 0.0  
Snow Depth 0.00 in    
Sea Level Pressure  
Sea Level Pressure 30.28 in    
Wind  
Wind Speed 7 mph (SE)    
Max Wind Speed 16 mph    
Max Gust Speed 21 mph    
T = Trace of Precipitation, MM = Missing Value Source: NWS Daily Summary

Daily Weather History Graph

Daily Weather History Graph

Search for Another Location

Airport:

Trip Planner

Search our weather history database for the weather conditions in past years. The results will help you decide how hot, cold, wet, or windy it might be!

Date:

Astronomy

May. 11, 2013 Rise Set
Actual Time 5:36 AM MDT 8:33 PM MDT
Civil Twilight 5:00 AM MDT 9:08 PM MDT
Nautical Twilight 4:14 AM MDT 9:55 PM MDT
Astronomical Twilight 3:19 AM MDT 10:50 PM MDT
Moon 6:44 AM MDT (5/11) 10:18 PM MDT (5/11)
Length of Visible Light 16h 08m
Length of Day
14h 56m
Waxing Crescent, 3% of the Moon is Illuminated
May 11
Waxing Crescent
May 17
First Quarter
May 24
Full
May 31
Last Quarter
Jun 8
New

Hourly Weather History & Observations

Time (MDT) Temp. Windchill Dew Point Humidity Pressure Visibility Wind Dir Wind Speed Gust Speed Precip Events Conditions
12:48 AM 35.1 °F 32.2 °F 24.1 °F 64% 30.45 in - West 3.5 mph - N/A   Unknown
1:48 AM 35.1 °F - 24.1 °F 64% 30.45 in - Calm Calm - N/A   Unknown
2:48 AM 36.0 °F 30.3 °F 23.0 °F 59% 30.44 in - NE 6.9 mph - N/A   Unknown
3:48 AM 33.1 °F 28.7 °F 21.9 °F 64% 30.45 in - NE 4.6 mph - N/A   Unknown
4:48 AM 28.0 °F - 21.0 °F 75% 30.46 in - Calm Calm - N/A   Unknown
5:48 AM 26.1 °F - 21.0 °F 81% 30.46 in - Calm Calm - N/A   Unknown
6:48 AM 33.1 °F - 24.1 °F 70% 30.45 in - Calm Calm - N/A   Unknown
7:48 AM 43.0 °F 38.2 °F 26.1 °F 51% 30.43 in - SE 8.1 mph - N/A   Unknown
8:48 AM 48.9 °F - 25.0 °F 39% 30.41 in - ESE 12.7 mph - N/A   Unknown
9:48 AM 54.0 °F - 25.0 °F 33% 30.38 in - SE 13.8 mph - N/A   Unknown
10:48 AM 57.9 °F - 24.1 °F 27% 30.35 in - SSE 10.4 mph - N/A   Unknown
11:48 AM 61.0 °F - 26.1 °F 26% 30.32 in - South 9.2 mph - N/A   Unknown
12:48 PM 64.0 °F - 26.1 °F 24% 30.28 in - South 11.5 mph 16.1 mph N/A   Unknown
1:48 PM 66.0 °F - 26.1 °F 22% 30.24 in - Variable 6.9 mph - N/A   Unknown
2:48 PM 69.1 °F - 27.0 °F 21% 30.20 in - SE 4.6 mph 16.1 mph N/A   Unknown
3:48 PM 70.0 °F - 28.0 °F 21% 30.18 in - SSE 5.8 mph 17.3 mph N/A   Unknown
4:48 PM 70.0 °F - 28.0 °F 21% 30.16 in - SSE 6.9 mph 18.4 mph N/A   Unknown
5:48 PM 71.1 °F - 30.0 °F 22% 30.13 in - ESE 8.1 mph 17.3 mph N/A   Unknown
6:48 PM 69.1 °F - 30.0 °F 23% 30.11 in - SE 10.4 mph - N/A   Unknown
7:48 PM 66.9 °F - 32.0 °F 27% 30.09 in - ESE 8.1 mph - N/A   Unknown
8:48 PM 59.0 °F - 30.9 °F 35% 30.09 in - ESE 9.2 mph - N/A   Unknown
9:48 PM 57.0 °F - 30.0 °F 36% 30.10 in - ESE 10.4 mph - N/A   Unknown
10:48 PM 54.0 °F - 27.0 °F 35% 30.10 in - ESE 9.2 mph - N/A   Unknown
11:48 PM 55.0 °F - 26.1 °F 33% 30.09 in - East 11.5 mph - N/A   Unknown